Find Ningxia-1 04 xing

NORAD ID: 44782 Int'l Des: 2019-076 Owner: NINGX/CASC Country: CN operational
LEOCIRCULAR

实时位置

正在加载3D地球...

关于 Ningxia-1 04 xing

正在加载描述...

即将过境

Passes for default location (London). Set your location on the main map for personalized predictions.

高度历史

Loading altitude history...

两行轨道根数

1 44782U 19076D 26106.99843284 -.00000183 00000-0 -34703-4 0 9995
2 44782 45.0068 93.2677 0013068 200.7495 159.2810 14.02061058329231
Epoch: Apr 16, 2026 • Age: 8 hours

当前状态

高度 886.6 km
速度 7.41 km/s
星下点 -30.94°S, 15.25°W
发射日期 Nov 13, 2019
运行时间 6.4 years
类型 other

技术详情

分类 Payload
质量 100.00 kg
干质量 100.00 kg
总质量 100.00 kg
长度 0.50 m
直径 0.20 m
跨度 1.00 m
形状 Box + 2 pan
制造商 DFHZ
平台类型 NX-1
阶段状态 In Orbit
所有者/国家 NINGX/CASC/CN

Most Searched